Powrót do katalogu

STARLINK-36811

AktywnyŁącznośćSSO
NORAD 67808·PAYLOAD·🇺🇸 United States

Wystrzelony Feb 15, 2026 z Vandenberg Space Force Base

Loading…

Następne Przeloty (najbliższe 24 godziny)

TLE

ŚwieżeSource: CelesTrak SupGP

Epoka: Sep 14, 2026, 21:25 UTC

1 67808C 26032M   26257.89284722  .00093604  00000+0  29070-2 0  2574
2 67808  97.2856  84.4000 0001698  93.5324  38.9152 15.33377253    12

Śledź STARLINK-36811 w czasie rzeczywistym z AllMySat

Download on the App Store